Time,TemperatureF,DewpointF,PressureIn,WindDirection,WindDirectionDegrees,WindSpeedMPH,WindSpeedGustMPH,Humidity,HourlyPrecipIn,Conditions,Clouds,dailyrainin,SoftwareType,DateUTC
2013-02-18 00:00:00,29.0,29.0,30.26,North,360,0.0,0.0,98,0.00,,,0.00,Rainwise IP-100,2013-02-18 05:00:00,
2013-02-18 00:05:00,29.0,29.0,30.26,North,360,0.0,0.0,98,0.00,,,0.00,Rainwise IP-100,2013-02-18 05:05:00,
2013-02-18 00:10:00,28.0,28.0,30.27,North,360,0.0,0.0,97,0.00,,,0.00,Rainwise IP-100,2013-02-18 05:10:00,
2013-02-18 00:15:00,29.0,29.0,30.27,North,360,0.0,0.0,99,0.00,,,0.00,Rainwise IP-100,2013-02-18 05:15:00,
2013-02-18 00:20:00,28.0,28.0,30.27,North,360,0.0,0.0,98,0.00,,,0.00,Rainwise IP-100,2013-02-18 05:20:00,
2013-02-18 00:25:00,28.0,28.0,30.27,North,360,0.0,0.0,98,0.00,,,0.00,Rainwise IP-100,2013-02-18 05:25:00,
2013-02-18 00:30:00,29.0,29.0,30.27,North,360,0.0,0.0,100,0.00,,,0.00,Rainwise IP-100,2013-02-18 05:30:00,
2013-02-18 00:35:00,28.0,28.0,30.27,North,360,0.0,0.0,98,0.00,,,0.00,Rainwise IP-100,2013-02-18 05:35:00,
2013-02-18 00:40:00,28.0,28.0,30.27,West,270,0.0,0.0,100,0.00,,,0.00,Rainwise IP-100,2013-02-18 05:40:00,
2013-02-18 00:45:00,29.0,29.0,30.27,West,270,0.0,0.0,100,0.00,,,0.00,Rainwise IP-100,2013-02-18 05:45:00,
2013-02-18 00:50:00,29.0,29.0,30.27,West,270,0.0,0.0,100,0.00,,,0.00,Rainwise IP-100,2013-02-18 05:50:00,
2013-02-18 00:55:00,29.0,29.0,30.27,West,270,0.0,0.0,98,0.00,,,0.00,Rainwise IP-100,2013-02-18 05:55:00,
2013-02-18 01:00:00,29.0,28.0,30.28,West,270,0.0,0.0,95,0.00,,,0.00,Rainwise IP-100,2013-02-18 06:00:00,
2013-02-18 01:05:00,30.0,29.0,30.28,West,270,0.0,0.0,93,0.00,,,0.00,Rainwise IP-100,2013-02-18 06:05:00,
2013-02-18 01:10:00,30.0,29.0,30.28,West,270,0.0,0.0,95,0.00,,,0.00,Rainwise IP-100,2013-02-18 06:10:00,
2013-02-18 01:15:00,31.0,28.0,30.28,West,270,0.0,0.0,88,0.00,,,0.00,Rainwise IP-100,2013-02-18 06:15:00,
2013-02-18 01:20:00,31.0,28.0,30.28,West,270,0.0,0.0,87,0.00,,,0.00,Rainwise IP-100,2013-02-18 06:20:00,
2013-02-18 01:25:00,31.0,28.0,30.28,West,270,0.0,0.0,87,0.00,,,0.00,Rainwise IP-100,2013-02-18 06:25:00,
2013-02-18 01:30:00,31.0,28.0,30.28,West,270,0.0,0.0,87,0.00,,,0.00,Rainwise IP-100,2013-02-18 06:30:00,
2013-02-18 01:35:00,31.0,28.0,30.28,West,270,0.0,0.0,87,0.00,,,0.00,Rainwise IP-100,2013-02-18 06:35:00,
2013-02-18 01:40:00,31.0,26.0,30.28,SW,225,0.0,0.0,84,0.00,,,0.00,Rainwise IP-100,2013-02-18 06:40:00,
2013-02-18 01:45:00,31.0,26.0,30.28,SSW,202,0.0,1.0,85,0.00,,,0.00,Rainwise IP-100,2013-02-18 06:45:00,
2013-02-18 01:50:00,32.0,28.0,30.28,SSW,202,0.0,1.0,83,0.00,,,0.00,Rainwise IP-100,2013-02-18 06:50:00,
2013-02-18 01:55:00,32.0,26.0,30.29,SSW,202,0.0,1.0,78,0.00,,,0.00,Rainwise IP-100,2013-02-18 06:55:00,
2013-02-18 02:00:00,32.0,26.0,30.29,SSW,202,0.0,0.0,76,0.00,,,0.00,Rainwise IP-100,2013-02-18 07:00:00,
2013-02-18 02:05:00,32.0,26.0,30.28,SW,225,0.0,1.0,76,0.00,,,0.00,Rainwise IP-100,2013-02-18 07:05:00,
2013-02-18 02:10:00,33.0,26.0,30.28,SSW,202,0.0,1.0,75,0.00,,,0.00,Rainwise IP-100,2013-02-18 07:10:00,
2013-02-18 02:15:00,33.0,26.0,30.29,SSW,202,0.0,1.0,76,0.00,,,0.00,Rainwise IP-100,2013-02-18 07:15:00,
2013-02-18 02:20:00,33.0,28.0,30.29,SSW,202,0.0,0.0,78,0.00,,,0.00,Rainwise IP-100,2013-02-18 07:20:00,
2013-02-18 02:25:00,32.0,28.0,30.29,SSW,202,0.0,0.0,82,0.00,,,0.00,Rainwise IP-100,2013-02-18 07:25:00,
2013-02-18 02:30:00,31.0,26.0,30.29,SSW,202,0.0,0.0,81,0.00,,,0.00,Rainwise IP-100,2013-02-18 07:30:00,
2013-02-18 02:35:00,30.0,26.0,30.28,SSW,202,0.0,0.0,83,0.00,,,0.00,Rainwise IP-100,2013-02-18 07:35:00,
2013-02-18 02:40:00,30.0,26.0,30.29,SSW,202,0.0,0.0,85,0.00,,,0.00,Rainwise IP-100,2013-02-18 07:40:00,
2013-02-18 02:45:00,29.0,26.0,30.29,SSW,202,0.0,0.0,85,0.00,,,0.00,Rainwise IP-100,2013-02-18 07:45:00,
2013-02-18 02:50:00,29.0,26.0,30.28,West,270,0.0,0.0,89,0.00,,,0.00,Rainwise IP-100,2013-02-18 07:50:00,
2013-02-18 02:55:00,29.0,28.0,30.28,West,270,0.0,0.0,94,0.00,,,0.00,Rainwise IP-100,2013-02-18 07:55:00,
2013-02-18 03:00:00,29.0,28.0,30.29,West,270,0.0,0.0,95,0.00,,,0.00,Rainwise IP-100,2013-02-18 08:00:00,
2013-02-18 03:05:00,29.0,28.0,30.29,West,270,0.0,0.0,93,0.00,,,0.00,Rainwise IP-100,2013-02-18 08:05:00,
2013-02-18 03:10:00,28.0,26.0,30.28,West,270,0.0,0.0,92,0.00,,,0.00,Rainwise IP-100,2013-02-18 08:10:00,
2013-02-18 03:15:00,29.0,26.0,30.28,WSW,247,0.0,1.0,88,0.00,,,0.00,Rainwise IP-100,2013-02-18 08:15:00,
2013-02-18 03:20:00,29.0,26.0,30.28,WSW,247,0.0,0.0,89,0.00,,,0.00,Rainwise IP-100,2013-02-18 08:20:00,
2013-02-18 03:25:00,29.0,26.0,30.28,WSW,247,0.0,0.0,85,0.00,,,0.00,Rainwise IP-100,2013-02-18 08:25:00,
2013-02-18 03:30:00,30.0,26.0,30.28,WNW,292,0.0,0.0,84,0.00,,,0.00,Rainwise IP-100,2013-02-18 08:30:00,
2013-02-18 03:35:00,30.0,26.0,30.28,West,270,0.0,1.0,85,0.00,,,0.00,Rainwise IP-100,2013-02-18 08:35:00,
2013-02-18 03:40:00,29.0,26.0,30.28,West,270,0.0,0.0,88,0.00,,,0.00,Rainwise IP-100,2013-02-18 08:40:00,
2013-02-18 03:41:00,29.0,26.0,30.28,West,270,0.0,0.0,90,0.00,,,0.00,Rainwise IP-100,2013-02-18 08:41:00,
2013-02-18 03:45:00,29.0,26.0,30.28,West,270,0.0,0.0,90,0.00,,,0.00,Rainwise IP-100,2013-02-18 08:45:00,
2013-02-18 03:50:00,28.0,26.0,30.28,West,270,0.0,0.0,93,0.00,,,0.00,Rainwise IP-100,2013-02-18 08:50:00,
2013-02-18 03:55:00,28.0,26.0,30.28,West,270,0.0,0.0,95,0.00,,,0.00,Rainwise IP-100,2013-02-18 08:55:00,
2013-02-18 04:00:00,28.0,28.0,30.28,West,270,0.0,0.0,97,0.00,,,0.00,Rainwise IP-100,2013-02-18 09:00:00,
2013-02-18 04:05:00,28.0,26.0,30.28,West,270,0.0,0.0,92,0.00,,,0.00,Rainwise IP-100,2013-02-18 09:05:00,
2013-02-18 04:10:00,28.0,26.0,30.28,West,270,0.0,0.0,95,0.00,,,0.00,Rainwise IP-100,2013-02-18 09:10:00,
2013-02-18 04:15:00,28.0,26.0,30.28,West,270,0.0,0.0,93,0.00,,,0.00,Rainwise IP-100,2013-02-18 09:15:00,
2013-02-18 04:20:00,28.0,26.0,30.29,West,270,0.0,0.0,92,0.00,,,0.00,Rainwise IP-100,2013-02-18 09:20:00,
2013-02-18 04:25:00,28.0,26.0,30.29,West,270,0.0,0.0,92,0.00,,,0.00,Rainwise IP-100,2013-02-18 09:25:00,
2013-02-18 04:30:00,28.0,24.0,30.29,West,270,0.0,0.0,87,0.00,,,0.00,Rainwise IP-100,2013-02-18 09:30:00,
2013-02-18 04:35:00,28.0,24.0,30.29,West,270,0.0,0.0,88,0.00,,,0.00,Rainwise IP-100,2013-02-18 09:35:00,
2013-02-18 04:40:00,29.0,28.0,30.30,West,270,0.0,0.0,92,0.00,,,0.00,Rainwise IP-100,2013-02-18 09:40:00,
2013-02-18 04:45:00,28.0,26.0,30.29,West,270,0.0,0.0,91,0.00,,,0.00,Rainwise IP-100,2013-02-18 09:45:00,
2013-02-18 04:50:00,28.0,26.0,30.30,West,270,0.0,0.0,90,0.00,,,0.00,Rainwise IP-100,2013-02-18 09:50:00,
2013-02-18 04:55:00,28.0,26.0,30.30,West,270,0.0,0.0,92,0.00,,,0.00,Rainwise IP-100,2013-02-18 09:55:00,
2013-02-18 05:00:00,28.0,24.0,30.30,West,270,0.0,0.0,88,0.00,,,0.00,Rainwise IP-100,2013-02-18 10:00:00,
2013-02-18 05:05:00,28.0,24.0,30.30,West,270,0.0,0.0,87,0.00,,,0.00,Rainwise IP-100,2013-02-18 10:05:00,
2013-02-18 05:10:00,28.0,24.0,30.30,West,270,0.0,0.0,88,0.00,,,0.00,Rainwise IP-100,2013-02-18 10:10:00,
2013-02-18 05:15:00,28.0,26.0,30.30,West,270,0.0,0.0,92,0.00,,,0.00,Rainwise IP-100,2013-02-18 10:15:00,
2013-02-18 05:20:00,28.0,26.0,30.30,West,270,0.0,0.0,93,0.00,,,0.00,Rainwise IP-100,2013-02-18 10:20:00,
2013-02-18 05:25:00,28.0,26.0,30.30,West,270,0.0,0.0,92,0.00,,,0.00,Rainwise IP-100,2013-02-18 10:25:00,
2013-02-18 05:30:00,27.0,26.0,30.31,West,270,0.0,0.0,93,0.00,,,0.00,Rainwise IP-100,2013-02-18 10:30:00,
2013-02-18 05:35:00,28.0,26.0,30.31,West,270,0.0,0.0,96,0.00,,,0.00,Rainwise IP-100,2013-02-18 10:35:00,
2013-02-18 05:40:00,27.0,26.0,30.31,West,270,0.0,0.0,94,0.00,,,0.00,Rainwise IP-100,2013-02-18 10:40:00,
2013-02-18 05:45:00,27.0,26.0,30.31,West,270,0.0,0.0,93,0.00,,,0.00,Rainwise IP-100,2013-02-18 10:45:00,
2013-02-18 05:50:00,27.0,26.0,30.32,West,270,0.0,0.0,96,0.00,,,0.00,Rainwise IP-100,2013-02-18 10:50:00,
2013-02-18 05:55:00,27.0,26.0,30.31,West,270,0.0,0.0,96,0.00,,,0.00,Rainwise IP-100,2013-02-18 10:55:00,
2013-02-18 06:00:00,26.0,26.0,30.32,West,270,0.0,0.0,98,0.00,,,0.00,Rainwise IP-100,2013-02-18 11:00:00,
2013-02-18 06:05:00,26.0,26.0,30.33,West,270,0.0,0.0,98,0.00,,,0.00,Rainwise IP-100,2013-02-18 11:05:00,
2013-02-18 06:10:00,26.0,26.0,30.33,West,270,0.0,0.0,98,0.00,,,0.00,Rainwise IP-100,2013-02-18 11:10:00,
2013-02-18 06:15:00,26.0,26.0,30.33,West,270,0.0,0.0,100,0.00,,,0.00,Rainwise IP-100,2013-02-18 11:15:00,
2013-02-18 06:20:00,25.0,26.0,30.33,West,270,0.0,0.0,99,0.00,,,0.00,Rainwise IP-100,2013-02-18 11:20:00,
2013-02-18 06:25:00,25.0,26.0,30.33,West,270,0.0,0.0,100,0.00,,,0.00,Rainwise IP-100,2013-02-18 11:25:00,
2013-02-18 06:30:00,25.0,26.0,30.33,West,270,0.0,0.0,100,0.00,,,0.00,Rainwise IP-100,2013-02-18 11:30:00,
2013-02-18 06:35:00,25.0,26.0,30.33,West,270,0.0,0.0,100,0.00,,,0.00,Rainwise IP-100,2013-02-18 11:35:00,
2013-02-18 06:40:00,25.0,26.0,30.33,West,270,0.0,0.0,100,0.00,,,0.00,Rainwise IP-100,2013-02-18 11:40:00,
2013-02-18 06:45:00,25.0,26.0,30.33,West,270,0.0,0.0,100,0.00,,,0.00,Rainwise IP-100,2013-02-18 11:45:00,
2013-02-18 06:50:00,25.0,26.0,30.33,West,270,0.0,0.0,100,0.00,,,0.00,Rainwise IP-100,2013-02-18 11:50:00,
2013-02-18 06:55:00,25.0,26.0,30.34,West,270,0.0,0.0,100,0.00,,,0.00,Rainwise IP-100,2013-02-18 11:55:00,
2013-02-18 07:00:00,25.0,26.0,30.34,West,270,0.0,0.0,100,0.00,,,0.00,Rainwise IP-100,2013-02-18 12:00:00,
2013-02-18 07:05:00,25.0,26.0,30.34,West,270,0.0,0.0,100,0.00,,,0.00,Rainwise IP-100,2013-02-18 12:05:00,
2013-02-18 07:10:00,25.0,26.0,30.35,West,270,0.0,0.0,100,0.00,,,0.00,Rainwise IP-100,2013-02-18 12:10:00,
2013-02-18 07:15:00,25.0,26.0,30.35,West,270,0.0,0.0,100,0.00,,,0.00,Rainwise IP-100,2013-02-18 12:15:00,
2013-02-18 07:20:00,25.0,26.0,30.35,West,270,0.0,0.0,100,0.00,,,0.00,Rainwise IP-100,2013-02-18 12:20:00,
2013-02-18 07:25:00,25.0,26.0,30.35,West,270,0.0,0.0,100,0.00,,,0.00,Rainwise IP-100,2013-02-18 12:25:00,
2013-02-18 07:30:00,25.0,26.0,30.35,West,270,0.0,0.0,100,0.00,,,0.00,Rainwise IP-100,2013-02-18 12:30:00,
2013-02-18 07:35:00,25.0,26.0,30.35,West,270,0.0,0.0,100,0.00,,,0.00,Rainwise IP-100,2013-02-18 12:35:00,
2013-02-18 07:40:00,26.0,26.0,30.36,West,270,0.0,0.0,100,0.00,,,0.00,Rainwise IP-100,2013-02-18 12:40:00,
2013-02-18 07:45:00,26.0,26.0,30.36,West,270,0.0,0.0,100,0.00,,,0.00,Rainwise IP-100,2013-02-18 12:45:00,
2013-02-18 07:50:00,27.0,28.0,30.36,West,270,0.0,0.0,100,0.00,,,0.00,Rainwise IP-100,2013-02-18 12:50:00,
2013-02-18 07:55:00,27.0,28.0,30.36,West,270,0.0,0.0,100,0.00,,,0.00,Rainwise IP-100,2013-02-18 12:55:00,
2013-02-18 08:00:00,28.0,28.0,30.36,West,270,0.0,0.0,100,0.00,,,0.00,Rainwise IP-100,2013-02-18 13:00:00,
2013-02-18 08:05:00,28.0,28.0,30.36,West,270,0.0,0.0,100,0.00,,,0.00,Rainwise IP-100,2013-02-18 13:05:00,
2013-02-18 08:10:00,29.0,29.0,30.37,West,270,0.0,0.0,100,0.00,,,0.00,Rainwise IP-100,2013-02-18 13:10:00,
2013-02-18 08:15:00,29.0,29.0,30.37,West,270,0.0,0.0,100,0.00,,,0.00,Rainwise IP-100,2013-02-18 13:15:00,
2013-02-18 08:20:00,30.0,31.0,30.37,West,270,0.0,0.0,100,0.00,,,0.00,Rainwise IP-100,2013-02-18 13:20:00,
2013-02-18 08:25:00,30.0,31.0,30.37,West,270,0.0,0.0,100,0.00,,,0.00,Rainwise IP-100,2013-02-18 13:25:00,
2013-02-18 08:30:00,31.0,31.0,30.37,West,270,0.0,0.0,100,0.00,,,0.00,Rainwise IP-100,2013-02-18 13:30:00,
2013-02-18 08:35:00,31.0,31.0,30.38,West,270,0.0,0.0,99,0.00,,,0.00,Rainwise IP-100,2013-02-18 13:35:00,
2013-02-18 08:40:00,32.0,29.0,30.37,WNW,292,0.0,0.0,91,0.00,,,0.00,Rainwise IP-100,2013-02-18 13:40:00,
2013-02-18 08:45:00,34.0,31.0,30.38,WNW,292,0.0,0.0,83,0.00,,,0.00,Rainwise IP-100,2013-02-18 13:45:00,
2013-02-18 08:50:00,36.0,29.0,30.39,NNW,337,0.0,0.0,77,0.00,,,0.00,Rainwise IP-100,2013-02-18 13:50:00,
2013-02-18 08:55:00,38.0,29.0,30.39,NW,315,0.0,1.0,70,0.00,,,0.00,Rainwise IP-100,2013-02-18 13:55:00,
2013-02-18 09:00:00,40.0,33.0,30.40,NNW,337,0.0,1.0,76,0.00,,,0.00,Rainwise IP-100,2013-02-18 14:00:00,
2013-02-18 09:05:00,41.0,35.0,30.41,NNW,337,0.0,0.0,76,0.00,,,0.00,Rainwise IP-100,2013-02-18 14:05:00,
2013-02-18 09:10:00,43.0,33.0,30.42,SSE,157,0.0,0.0,69,0.00,,,0.00,Rainwise IP-100,2013-02-18 14:10:00,
2013-02-18 09:15:00,44.0,33.0,30.42,ESE,112,0.0,0.0,65,0.00,,,0.00,Rainwise IP-100,2013-02-18 14:15:00,
2013-02-18 09:20:00,46.0,32.0,30.43,South,180,0.0,0.0,57,0.00,,,0.00,Rainwise IP-100,2013-02-18 14:20:00,
2013-02-18 09:25:00,47.0,32.0,30.43,East,90,0.0,0.0,55,0.00,,,0.00,Rainwise IP-100,2013-02-18 14:25:00,
2013-02-18 09:30:00,48.0,31.0,30.43,East,90,0.0,0.0,50,0.00,,,0.00,Rainwise IP-100,2013-02-18 14:30:00,
2013-02-18 09:35:00,49.0,29.0,30.43,NW,315,0.0,0.0,45,0.00,,,0.00,Rainwise IP-100,2013-02-18 14:35:00,
2013-02-18 09:40:00,50.0,29.0,30.44,WSW,247,0.0,0.0,45,0.00,,,0.00,Rainwise IP-100,2013-02-18 14:40:00,
2013-02-18 09:45:00,50.0,28.0,30.44,ENE,67,0.0,2.0,41,0.00,,,0.00,Rainwise IP-100,2013-02-18 14:45:00,
2013-02-18 09:50:00,51.0,29.0,30.45,ESE,112,0.0,0.0,42,0.00,,,0.00,Rainwise IP-100,2013-02-18 14:50:00,
2013-02-18 09:55:00,51.0,26.0,30.45,East,90,0.0,3.0,38,0.00,,,0.00,Rainwise IP-100,2013-02-18 14:55:00,
2013-02-18 10:00:00,51.0,24.0,30.45,SSE,157,0.0,2.0,35,0.00,,,0.00,Rainwise IP-100,2013-02-18 15:00:00,
2013-02-18 10:05:00,52.0,26.0,30.45,NW,315,0.0,3.0,36,0.00,,,0.00,Rainwise IP-100,2013-02-18 15:05:00,
2013-02-18 10:10:00,52.0,23.0,30.46,SE,135,0.0,2.0,32,0.00,,,0.00,Rainwise IP-100,2013-02-18 15:10:00,
2013-02-18 10:15:00,53.0,24.0,30.46,North,360,0.0,3.0,32,0.00,,,0.00,Rainwise IP-100,2013-02-18 15:15:00,
2013-02-18 10:20:00,53.0,24.0,30.46,NNW,337,0.0,2.0,33,0.00,,,0.00,Rainwise IP-100,2013-02-18 15:20:00,
2013-02-18 10:25:00,53.0,21.0,30.46,North,360,0.0,3.0,28,0.00,,,0.00,Rainwise IP-100,2013-02-18 15:25:00,
2013-02-18 10:30:00,54.0,24.0,30.46,ENE,67,0.0,4.0,30,0.00,,,0.00,Rainwise IP-100,2013-02-18 15:30:00,
2013-02-18 10:35:00,54.0,24.0,30.46,WNW,292,0.0,3.0,31,0.00,,,0.00,Rainwise IP-100,2013-02-18 15:35:00,
2013-02-18 10:40:00,53.0,21.0,30.46,East,90,0.0,2.0,27,0.00,,,0.00,Rainwise IP-100,2013-02-18 15:40:00,
2013-02-18 10:45:00,54.0,24.0,30.45,ESE,112,1.0,2.0,31,0.00,,,0.00,Rainwise IP-100,2013-02-18 15:45:00,
2013-02-18 10:50:00,54.0,23.0,30.47,NW,315,0.0,3.0,28,0.00,,,0.00,Rainwise IP-100,2013-02-18 15:50:00,
2013-02-18 10:55:00,54.0,24.0,30.46,ENE,67,0.0,2.0,30,0.00,,,0.00,Rainwise IP-100,2013-02-18 15:55:00,
2013-02-18 11:00:00,54.0,23.0,30.47,NW,315,0.0,4.0,29,0.00,,,0.00,Rainwise IP-100,2013-02-18 16:00:00,
2013-02-18 11:05:00,55.0,23.0,30.47,NNW,337,0.0,1.0,28,0.00,,,0.00,Rainwise IP-100,2013-02-18 16:05:00,
2013-02-18 11:10:00,55.0,23.0,30.47,NW,315,0.0,1.0,28,0.00,,,0.00,Rainwise IP-100,2013-02-18 16:10:00,
2013-02-18 11:15:00,56.0,24.0,30.47,NNE,22,0.0,1.0,29,0.00,,,0.00,Rainwise IP-100,2013-02-18 16:15:00,
2013-02-18 11:20:00,55.0,21.0,30.47,SSE,157,0.0,3.0,26,0.00,,,0.00,Rainwise IP-100,2013-02-18 16:20:00,
2013-02-18 11:25:00,55.0,21.0,30.47,South,180,0.0,4.0,26,0.00,,,0.00,Rainwise IP-100,2013-02-18 16:25:00,
2013-02-18 11:30:00,55.0,23.0,30.47,NNE,22,0.0,3.0,28,0.00,,,0.00,Rainwise IP-100,2013-02-18 16:30:00,
2013-02-18 11:35:00,54.0,23.0,30.47,East,90,1.0,3.0,28,0.00,,,0.00,Rainwise IP-100,2013-02-18 16:35:00,
2013-02-18 11:40:00,54.0,23.0,30.47,NNE,22,0.0,5.0,29,0.00,,,0.00,Rainwise IP-100,2013-02-18 16:40:00,
2013-02-18 11:45:00,54.0,24.0,30.47,ESE,112,0.0,4.0,31,0.00,,,0.00,Rainwise IP-100,2013-02-18 16:45:00,
2013-02-18 11:50:00,54.0,23.0,30.46,SE,135,1.0,3.0,29,0.00,,,0.00,Rainwise IP-100,2013-02-18 16:50:00,
2013-02-18 11:55:00,54.0,24.0,30.47,NNW,337,0.0,3.0,31,0.00,,,0.00,Rainwise IP-100,2013-02-18 16:55:00,
2013-02-18 12:00:00,54.0,24.0,30.46,ENE,67,0.0,6.0,30,0.00,,,0.00,Rainwise IP-100,2013-02-18 17:00:00,
2013-02-18 12:05:00,54.0,26.0,30.46,SSE,157,0.0,4.0,34,0.00,,,0.00,Rainwise IP-100,2013-02-18 17:05:00,
2013-02-18 12:10:00,54.0,24.0,30.46,ENE,67,0.0,3.0,30,0.00,,,0.00,Rainwise IP-100,2013-02-18 17:10:00,
2013-02-18 12:15:00,53.0,23.0,30.46,West,270,0.0,6.0,31,0.00,,,0.00,Rainwise IP-100,2013-02-18 17:15:00,
2013-02-18 12:20:00,53.0,23.0,30.46,East,90,1.0,6.0,29,0.00,,,0.00,Rainwise IP-100,2013-02-18 17:20:00,
2013-02-18 12:25:00,54.0,23.0,30.46,SSE,157,0.0,3.0,29,0.00,,,0.00,Rainwise IP-100,2013-02-18 17:25:00,
2013-02-18 12:30:00,54.0,23.0,30.45,South,180,0.0,3.0,28,0.00,,,0.00,Rainwise IP-100,2013-02-18 17:30:00,
2013-02-18 12:35:00,53.0,23.0,30.46,North,360,0.0,3.0,29,0.00,,,0.00,Rainwise IP-100,2013-02-18 17:35:00,
2013-02-18 12:40:00,54.0,23.0,30.45,ENE,67,0.0,3.0,29,0.00,,,0.00,Rainwise IP-100,2013-02-18 17:40:00,
2013-02-18 12:45:00,55.0,26.0,30.45,ENE,67,2.0,2.0,31,0.00,,,0.00,Rainwise IP-100,2013-02-18 17:45:00,
2013-02-18 12:50:00,53.0,23.0,30.45,NW,315,0.0,7.0,31,0.00,,,0.00,Rainwise IP-100,2013-02-18 17:50:00,
2013-02-18 12:55:00,54.0,26.0,30.44,NE,45,0.0,3.0,33,0.00,,,0.00,Rainwise IP-100,2013-02-18 17:55:00,
2013-02-18 13:00:00,53.0,24.0,30.44,SE,135,0.0,5.0,33,0.00,,,0.00,Rainwise IP-100,2013-02-18 18:00:00,
2013-02-18 13:05:00,52.0,24.0,30.43,East,90,0.0,3.0,34,0.00,,,0.00,Rainwise IP-100,2013-02-18 18:05:00,
2013-02-18 13:10:00,52.0,21.0,30.43,ESE,112,0.0,4.0,29,0.00,,,0.00,Rainwise IP-100,2013-02-18 18:10:00,
2013-02-18 13:15:00,52.0,23.0,30.42,WNW,292,0.0,5.0,32,0.00,,,0.00,Rainwise IP-100,2013-02-18 18:15:00,
2013-02-18 13:20:00,52.0,24.0,30.42,East,90,0.0,4.0,33,0.00,,,0.00,Rainwise IP-100,2013-02-18 18:20:00,
2013-02-18 13:25:00,52.0,23.0,30.41,SE,135,0.0,2.0,31,0.00,,,0.00,Rainwise IP-100,2013-02-18 18:25:00,
2013-02-18 13:30:00,51.0,23.0,30.41,ESE,112,2.0,4.0,32,0.00,,,0.00,Rainwise IP-100,2013-02-18 18:30:00,
2013-02-18 13:35:00,51.0,23.0,30.41,NNE,22,0.0,3.0,32,0.00,,,0.00,Rainwise IP-100,2013-02-18 18:35:00,
2013-02-18 13:40:00,51.0,24.0,30.41,SE,135,1.0,4.0,35,0.00,,,0.00,Rainwise IP-100,2013-02-18 18:40:00,
2013-02-18 13:46:00,52.0,24.0,30.41,North,360,0.0,3.0,33,0.00,,,0.00,Rainwise IP-100,2013-02-18 18:46:00,
2013-02-18 13:50:00,51.0,21.0,30.41,SE,135,0.0,2.0,30,0.00,,,0.00,Rainwise IP-100,2013-02-18 18:50:00,
2013-02-18 13:55:00,52.0,23.0,30.41,SSW,202,0.0,2.0,31,0.00,,,0.00,Rainwise IP-100,2013-02-18 18:55:00,
2013-02-18 14:00:00,52.0,23.0,30.41,ESE,112,0.0,3.0,32,0.00,,,0.00,Rainwise IP-100,2013-02-18 19:00:00,
2013-02-18 14:05:00,52.0,24.0,30.41,East,90,0.0,3.0,34,0.00,,,0.00,Rainwise IP-100,2013-02-18 19:05:00,
2013-02-18 14:10:00,53.0,26.0,30.41,NE,45,0.0,3.0,35,0.00,,,0.00,Rainwise IP-100,2013-02-18 19:10:00,
2013-02-18 14:15:00,53.0,26.0,30.41,ESE,112,0.0,2.0,34,0.00,,,0.00,Rainwise IP-100,2013-02-18 19:15:00,
2013-02-18 14:20:00,54.0,26.0,30.41,SE,135,0.0,2.0,34,0.00,,,0.00,Rainwise IP-100,2013-02-18 19:20:00,
2013-02-18 14:25:00,53.0,24.0,30.41,South,180,0.0,6.0,32,0.00,,,0.00,Rainwise IP-100,2013-02-18 19:25:00,
2013-02-18 14:30:00,53.0,24.0,30.41,ENE,67,0.0,3.0,33,0.00,,,0.00,Rainwise IP-100,2013-02-18 19:30:00,
2013-02-18 14:35:00,53.0,24.0,30.39,North,360,0.0,3.0,33,0.00,,,0.00,Rainwise IP-100,2013-02-18 19:35:00,
2013-02-18 14:40:00,53.0,26.0,30.39,SE,135,0.0,3.0,34,0.00,,,0.00,Rainwise IP-100,2013-02-18 19:40:00,
2013-02-18 14:45:00,53.0,24.0,30.40,SE,135,0.0,2.0,33,0.00,,,0.00,Rainwise IP-100,2013-02-18 19:45:00,
2013-02-18 14:50:00,54.0,26.0,30.40,ENE,67,0.0,0.0,34,0.00,,,0.00,Rainwise IP-100,2013-02-18 19:50:00,
2013-02-18 14:56:00,53.0,26.0,30.40,ESE,112,0.0,2.0,34,0.00,,,0.00,Rainwise IP-100,2013-02-18 19:56:00,
2013-02-18 15:01:00,53.0,26.0,30.39,SE,135,0.0,2.0,34,0.00,,,0.00,Rainwise IP-100,2013-02-18 20:01:00,
2013-02-18 15:06:00,53.0,28.0,30.39,ENE,67,0.0,2.0,37,0.00,,,0.00,Rainwise IP-100,2013-02-18 20:06:00,
2013-02-18 15:11:00,52.0,26.0,30.39,NNE,22,0.0,3.0,37,0.00,,,0.00,Rainwise IP-100,2013-02-18 20:11:00,
2013-02-18 15:16:00,52.0,26.0,30.39,WNW,292,0.0,2.0,37,0.00,,,0.00,Rainwise IP-100,2013-02-18 20:16:00,
2013-02-18 15:21:00,52.0,28.0,30.39,ENE,67,0.0,2.0,38,0.00,,,0.00,Rainwise IP-100,2013-02-18 20:21:00,
2013-02-18 15:26:00,52.0,26.0,30.39,SSE,157,0.0,0.0,36,0.00,,,0.00,Rainwise IP-100,2013-02-18 20:26:00,
2013-02-18 15:31:00,52.0,26.0,30.39,SSE,157,0.0,0.0,36,0.00,,,0.00,Rainwise IP-100,2013-02-18 20:31:00,
2013-02-18 15:36:00,52.0,28.0,30.39,ENE,67,0.0,2.0,39,0.00,,,0.00,Rainwise IP-100,2013-02-18 20:36:00,
2013-02-18 15:41:00,52.0,28.0,30.39,SE,135,0.0,1.0,39,0.00,,,0.00,Rainwise IP-100,2013-02-18 20:41:00,
2013-02-18 15:46:00,52.0,29.0,30.39,SE,135,0.0,0.0,40,0.00,,,0.00,Rainwise IP-100,2013-02-18 20:46:00,
2013-02-18 15:51:00,51.0,26.0,30.39,NE,45,0.0,2.0,37,0.00,,,0.00,Rainwise IP-100,2013-02-18 20:51:00,
2013-02-18 15:56:00,51.0,26.0,30.39,NE,45,0.0,1.0,36,0.00,,,0.00,Rainwise IP-100,2013-02-18 20:56:00,
2013-02-18 16:01:00,51.0,26.0,30.39,ESE,112,0.0,1.0,38,0.00,,,0.00,Rainwise IP-100,2013-02-18 21:01:00,
2013-02-18 16:06:00,51.0,29.0,30.39,ENE,67,0.0,2.0,41,0.00,,,0.00,Rainwise IP-100,2013-02-18 21:06:00,
2013-02-18 16:11:00,50.0,28.0,30.39,East,90,0.0,1.0,42,0.00,,,0.00,Rainwise IP-100,2013-02-18 21:11:00,
2013-02-18 16:16:00,50.0,28.0,30.38,ENE,67,0.0,2.0,42,0.00,,,0.00,Rainwise IP-100,2013-02-18 21:16:00,
2013-02-18 16:21:00,50.0,29.0,30.38,SE,135,0.0,0.0,44,0.00,,,0.00,Rainwise IP-100,2013-02-18 21:21:00,
2013-02-18 16:26:00,50.0,31.0,30.38,SE,135,0.0,1.0,46,0.00,,,0.00,Rainwise IP-100,2013-02-18 21:26:00,
2013-02-18 16:31:00,49.0,29.0,30.37,East,90,0.0,1.0,45,0.00,,,0.00,Rainwise IP-100,2013-02-18 21:31:00,
2013-02-18 16:36:00,49.0,29.0,30.38,ESE,112,0.0,0.0,46,0.00,,,0.00,Rainwise IP-100,2013-02-18 21:36:00,
2013-02-18 16:41:00,49.0,31.0,30.38,NE,45,0.0,0.0,49,0.00,,,0.00,Rainwise IP-100,2013-02-18 21:41:00,
2013-02-18 16:46:00,49.0,32.0,30.37,NE,45,0.0,1.0,50,0.00,,,0.00,Rainwise IP-100,2013-02-18 21:46:00,
2013-02-18 16:51:00,49.0,32.0,30.37,SE,135,0.0,0.0,50,0.00,,,0.00,Rainwise IP-100,2013-02-18 21:51:00,
2013-02-18 16:56:00,48.0,31.0,30.37,SE,135,0.0,0.0,51,0.00,,,0.00,Rainwise IP-100,2013-02-18 21:56:00,
2013-02-18 17:01:00,48.0,31.0,30.37,SE,135,0.0,0.0,51,0.00,,,0.00,Rainwise IP-100,2013-02-18 22:01:00,
2013-02-18 17:06:00,48.0,32.0,30.37,SE,135,0.0,0.0,52,0.00,,,0.00,Rainwise IP-100,2013-02-18 22:06:00,
2013-02-18 17:11:00,48.0,32.0,30.37,SE,135,0.0,0.0,53,0.00,,,0.00,Rainwise IP-100,2013-02-18 22:11:00,
2013-02-18 17:16:00,47.0,31.0,30.37,SE,135,0.0,0.0,53,0.00,,,0.00,Rainwise IP-100,2013-02-18 22:16:00,
2013-02-18 17:21:00,48.0,33.0,30.37,SE,135,0.0,0.0,55,0.00,,,0.00,Rainwise IP-100,2013-02-18 22:21:00,
2013-02-18 17:26:00,48.0,32.0,30.37,SE,135,0.0,0.0,53,0.00,,,0.00,Rainwise IP-100,2013-02-18 22:26:00,
2013-02-18 17:31:00,48.0,33.0,30.38,SE,135,0.0,0.0,55,0.00,,,0.00,Rainwise IP-100,2013-02-18 22:31:00,
2013-02-18 17:36:00,48.0,32.0,30.37,SE,135,0.0,0.0,53,0.00,,,0.00,Rainwise IP-100,2013-02-18 22:36:00,
2013-02-18 17:41:00,48.0,32.0,30.37,SE,135,0.0,0.0,53,0.00,,,0.00,Rainwise IP-100,2013-02-18 22:41:00,
2013-02-18 17:46:00,48.0,32.0,30.37,SE,135,0.0,0.0,53,0.00,,,0.00,Rainwise IP-100,2013-02-18 22:46:00,
2013-02-18 17:51:00,47.0,32.0,30.37,SE,135,0.0,0.0,55,0.00,,,0.00,Rainwise IP-100,2013-02-18 22:51:00,
2013-02-18 17:56:00,46.0,31.0,30.37,SE,135,0.0,0.0,56,0.00,,,0.00,Rainwise IP-100,2013-02-18 22:56:00,
2013-02-18 18:01:00,46.0,32.0,30.37,SE,135,0.0,0.0,58,0.00,,,0.00,Rainwise IP-100,2013-02-18 23:01:00,
2013-02-18 18:06:00,45.0,31.0,30.36,SE,135,0.0,0.0,58,0.00,,,0.00,Rainwise IP-100,2013-02-18 23:06:00,
2013-02-18 18:11:00,44.0,31.0,30.36,SE,135,0.0,0.0,60,0.00,,,0.00,Rainwise IP-100,2013-02-18 23:11:00,
2013-02-18 18:16:00,43.0,31.0,30.35,SE,135,0.0,0.0,62,0.00,,,0.00,Rainwise IP-100,2013-02-18 23:16:00,
2013-02-18 18:21:00,43.0,32.0,30.35,SE,135,0.0,0.0,63,0.00,,,0.00,Rainwise IP-100,2013-02-18 23:21:00,
2013-02-18 18:26:00,42.0,32.0,30.35,SE,135,0.0,0.0,67,0.00,,,0.00,Rainwise IP-100,2013-02-18 23:26:00,
2013-02-18 18:31:00,42.0,32.0,30.34,SE,135,0.0,0.0,66,0.00,,,0.00,Rainwise IP-100,2013-02-18 23:31:00,
2013-02-18 18:36:00,42.0,32.0,30.35,SE,135,0.0,0.0,68,0.00,,,0.00,Rainwise IP-100,2013-02-18 23:36:00,
2013-02-18 18:41:00,41.0,32.0,30.34,SE,135,0.0,0.0,68,0.00,,,0.00,Rainwise IP-100,2013-02-18 23:41:00,
2013-02-18 18:46:00,41.0,32.0,30.34,SE,135,0.0,0.0,70,0.00,,,0.00,Rainwise IP-100,2013-02-18 23:46:00,
2013-02-18 18:51:00,41.0,32.0,30.34,SE,135,0.0,0.0,71,0.00,,,0.00,Rainwise IP-100,2013-02-18 23:51:00,
2013-02-18 18:56:00,41.0,33.0,30.33,SE,135,0.0,0.0,73,0.00,,,0.00,Rainwise IP-100,2013-02-18 23:56:00,
2013-02-18 19:01:00,41.0,33.0,30.33,SE,135,0.0,0.0,73,0.00,,,0.00,Rainwise IP-100,2013-02-19 00:01:00,
2013-02-18 19:06:00,41.0,35.0,30.33,SE,135,0.0,0.0,75,0.00,,,0.00,Rainwise IP-100,2013-02-19 00:06:00,
2013-02-18 19:11:00,40.0,33.0,30.33,SE,135,0.0,0.0,74,0.00,,,0.00,Rainwise IP-100,2013-02-19 00:11:00,
2013-02-18 19:16:00,40.0,33.0,30.32,SE,135,0.0,0.0,77,0.00,,,0.00,Rainwise IP-100,2013-02-19 00:16:00,
2013-02-18 19:21:00,40.0,35.0,30.32,SE,135,0.0,0.0,78,0.00,,,0.00,Rainwise IP-100,2013-02-19 00:21:00,
2013-02-18 19:26:00,40.0,33.0,30.32,SE,135,0.0,0.0,76,0.00,,,0.00,Rainwise IP-100,2013-02-19 00:26:00,
2013-02-18 19:31:00,40.0,35.0,30.32,SE,135,0.0,0.0,79,0.00,,,0.00,Rainwise IP-100,2013-02-19 00:31:00,
2013-02-18 19:36:00,39.0,33.0,30.32,SE,135,0.0,0.0,80,0.00,,,0.00,Rainwise IP-100,2013-02-19 00:36:00,
2013-02-18 19:41:00,39.0,33.0,30.32,SE,135,0.0,0.0,80,0.00,,,0.00,Rainwise IP-100,2013-02-19 00:41:00,
2013-02-18 19:46:00,39.0,35.0,30.32,SE,135,0.0,0.0,83,0.00,,,0.00,Rainwise IP-100,2013-02-19 00:46:00,
2013-02-18 19:51:00,39.0,35.0,30.32,SE,135,0.0,0.0,83,0.00,,,0.00,Rainwise IP-100,2013-02-19 00:51:00,
2013-02-18 19:56:00,38.0,35.0,30.31,SE,135,0.0,0.0,85,0.00,,,0.00,Rainwise IP-100,2013-02-19 00:56:00,
2013-02-18 20:01:00,38.0,35.0,30.31,SE,135,0.0,0.0,85,0.00,,,0.00,Rainwise IP-100,2013-02-19 01:01:00,
2013-02-18 20:06:00,38.0,35.0,30.32,SE,135,0.0,0.0,86,0.00,,,0.00,Rainwise IP-100,2013-02-19 01:06:00,
2013-02-18 20:11:00,37.0,33.0,30.32,SE,135,0.0,0.0,87,0.00,,,0.00,Rainwise IP-100,2013-02-19 01:11:00,
2013-02-18 20:16:00,37.0,35.0,30.31,SE,135,0.0,0.0,89,0.00,,,0.00,Rainwise IP-100,2013-02-19 01:16:00,
2013-02-18 20:21:00,37.0,35.0,30.31,SE,135,0.0,0.0,90,0.00,,,0.00,Rainwise IP-100,2013-02-19 01:21:00,
2013-02-18 20:26:00,37.0,35.0,30.31,SE,135,0.0,0.0,90,0.00,,,0.00,Rainwise IP-100,2013-02-19 01:26:00,
2013-02-18 20:31:00,37.0,35.0,30.31,SE,135,0.0,0.0,90,0.00,,,0.00,Rainwise IP-100,2013-02-19 01:31:00,
2013-02-18 20:36:00,37.0,35.0,30.31,SE,135,0.0,0.0,90,0.00,,,0.00,Rainwise IP-100,2013-02-19 01:36:00,
2013-02-18 20:41:00,37.0,35.0,30.30,SE,135,0.0,0.0,93,0.00,,,0.00,Rainwise IP-100,2013-02-19 01:41:00,
2013-02-18 20:46:00,37.0,35.0,30.30,SE,135,0.0,0.0,92,0.00,,,0.00,Rainwise IP-100,2013-02-19 01:46:00,
2013-02-18 20:51:00,37.0,35.0,30.30,SE,135,0.0,0.0,92,0.00,,,0.00,Rainwise IP-100,2013-02-19 01:51:00,
2013-02-18 20:56:00,36.0,33.0,30.30,SE,135,0.0,0.0,91,0.00,,,0.00,Rainwise IP-100,2013-02-19 01:56:00,
2013-02-18 21:01:00,36.0,35.0,30.30,SE,135,0.0,0.0,93,0.00,,,0.00,Rainwise IP-100,2013-02-19 02:01:00,
2013-02-18 21:06:00,36.0,35.0,30.30,SE,135,0.0,0.0,93,0.00,,,0.00,Rainwise IP-100,2013-02-19 02:06:00,
2013-02-18 21:11:00,36.0,35.0,30.29,SE,135,0.0,0.0,94,0.00,,,0.00,Rainwise IP-100,2013-02-19 02:11:00,
2013-02-18 21:16:00,36.0,35.0,30.29,SE,135,0.0,0.0,94,0.00,,,0.00,Rainwise IP-100,2013-02-19 02:16:00,
2013-02-18 21:21:00,36.0,35.0,30.29,SE,135,0.0,0.0,94,0.00,,,0.00,Rainwise IP-100,2013-02-19 02:21:00,
2013-02-18 21:26:00,36.0,35.0,30.28,SE,135,0.0,0.0,94,0.00,,,0.00,Rainwise IP-100,2013-02-19 02:26:00,
2013-02-18 21:31:00,36.0,35.0,30.28,SE,135,0.0,0.0,94,0.00,,,0.00,Rainwise IP-100,2013-02-19 02:31:00,
2013-02-18 21:36:00,36.0,35.0,30.28,SE,135,0.0,0.0,95,0.00,,,0.00,Rainwise IP-100,2013-02-19 02:36:00,
2013-02-18 21:41:00,35.0,33.0,30.28,SE,135,0.0,0.0,95,0.00,,,0.00,Rainwise IP-100,2013-02-19 02:41:00,
2013-02-18 21:46:00,35.0,33.0,30.28,SE,135,0.0,0.0,95,0.00,,,0.00,Rainwise IP-100,2013-02-19 02:46:00,
2013-02-18 21:51:00,35.0,33.0,30.28,SE,135,0.0,0.0,95,0.00,,,0.00,Rainwise IP-100,2013-02-19 02:51:00,
2013-02-18 21:56:00,35.0,33.0,30.28,SE,135,0.0,0.0,95,0.00,,,0.00,Rainwise IP-100,2013-02-19 02:56:00,
2013-02-18 22:01:00,35.0,33.0,30.27,SE,135,0.0,0.0,96,0.00,,,0.00,Rainwise IP-100,2013-02-19 03:01:00,
2013-02-18 22:06:00,35.0,33.0,30.27,SE,135,0.0,0.0,96,0.00,,,0.00,Rainwise IP-100,2013-02-19 03:06:00,
2013-02-18 22:11:00,35.0,33.0,30.27,SE,135,0.0,0.0,95,0.00,,,0.00,Rainwise IP-100,2013-02-19 03:11:00,
2013-02-18 22:16:00,35.0,33.0,30.27,SE,135,0.0,0.0,96,0.00,,,0.00,Rainwise IP-100,2013-02-19 03:16:00,
2013-02-18 22:21:00,35.0,33.0,30.27,SE,135,0.0,0.0,97,0.00,,,0.00,Rainwise IP-100,2013-02-19 03:21:00,
2013-02-18 22:26:00,35.0,33.0,30.26,SE,135,0.0,0.0,97,0.00,,,0.00,Rainwise IP-100,2013-02-19 03:26:00,
2013-02-18 22:31:00,35.0,35.0,30.26,SE,135,0.0,0.0,98,0.00,,,0.00,Rainwise IP-100,2013-02-19 03:31:00,
2013-02-18 22:36:00,35.0,35.0,30.26,SE,135,0.0,0.0,98,0.00,,,0.00,Rainwise IP-100,2013-02-19 03:36:00,
2013-02-18 22:41:00,35.0,35.0,30.25,SE,135,0.0,0.0,98,0.00,,,0.00,Rainwise IP-100,2013-02-19 03:41:00,
2013-02-18 22:46:00,35.0,35.0,30.25,SE,135,0.0,0.0,98,0.00,,,0.00,Rainwise IP-100,2013-02-19 03:46:00,
2013-02-18 22:51:00,34.0,35.0,30.25,SE,135,0.0,0.0,98,0.00,,,0.00,Rainwise IP-100,2013-02-19 03:51:00,
2013-02-18 22:56:00,34.0,35.0,30.26,SE,135,0.0,0.0,99,0.00,,,0.00,Rainwise IP-100,2013-02-19 03:56:00,
2013-02-18 23:01:00,34.0,35.0,30.26,SE,135,0.0,0.0,100,0.00,,,0.00,Rainwise IP-100,2013-02-19 04:01:00,
2013-02-18 23:06:00,34.0,35.0,30.24,SE,135,0.0,0.0,100,0.00,,,0.00,Rainwise IP-100,2013-02-19 04:06:00,
2013-02-18 23:11:00,34.0,35.0,30.25,SE,135,0.0,0.0,99,0.00,,,0.00,Rainwise IP-100,2013-02-19 04:11:00,
2013-02-18 23:16:00,34.0,35.0,30.24,SE,135,0.0,0.0,100,0.00,,,0.00,Rainwise IP-100,2013-02-19 04:16:00,
2013-02-18 23:21:00,35.0,35.0,30.24,SE,135,0.0,0.0,99,0.00,,,0.00,Rainwise IP-100,2013-02-19 04:21:00,
2013-02-18 23:26:00,34.0,35.0,30.23,SE,135,0.0,0.0,100,0.00,,,0.00,Rainwise IP-100,2013-02-19 04:26:00,
2013-02-18 23:31:00,34.0,35.0,30.24,SE,135,0.0,0.0,100,0.00,,,0.00,Rainwise IP-100,2013-02-19 04:31:00,
2013-02-18 23:36:00,34.0,35.0,30.24,SE,135,0.0,0.0,100,0.00,,,0.00,Rainwise IP-100,2013-02-19 04:36:00,
2013-02-18 23:41:00,34.0,35.0,30.24,SE,135,0.0,0.0,100,0.00,,,0.00,Rainwise IP-100,2013-02-19 04:41:00,
2013-02-18 23:46:00,34.0,35.0,30.24,SE,135,0.0,0.0,100,0.00,,,0.00,Rainwise IP-100,2013-02-19 04:46:00,
2013-02-18 23:51:00,34.0,35.0,30.24,SE,135,0.0,0.0,100,0.00,,,0.00,Rainwise IP-100,2013-02-19 04:51:00,
2013-02-18 23:56:00,34.0,35.0,30.24,SE,135,0.0,0.0,100,0.00,,,0.00,Rainwise IP-100,2013-02-19 04:56:00,